Regional Weather Roundup
Issued by NWS

Home | Current Version | Previous Version | Graphics & Text | Print | Product List | Glossary On
Versions: 1 2 3 4 5 6 7 8 9 10 11 12 13 14 15 16 17 18 19 20 21 22 23 24 25 26 27 28 29 30 31 32 33 34 35 36 37 38 39 40 41 42 43 44 45 46 47 48 49 50
000
ASUS45 KSLC 292110
RWRUT

UTAH REGIONAL WEATHER ROUNDUP
NATIONAL WEATHER SERVICE SALT LAKE CITY UT
300 PM MDT WED JUL 29 2015

UTZ001>011-023>025-292200-

NORTHERN UTAH

CITY           SKY/WX    TMP DP  RH WIND       PRES   REMARKS
BRIGHAM CITY   SUNNY     81  24  12 SW8       30.28F
HILL AFB       SUNNY     80  27  14 VRB2      30.31S
LOGAN          SUNNY     79  18  10 W8        30.28F
OGDEN          SUNNY     81  29  15 VRB5      30.28F
PROVO AIRPORT  NOT AVBL
SALT LAKE CITY MOSUNNY   83  32  16 N7        30.26F
VERNAL         SUNNY     82  12   7 CALM      30.29F
WENDOVER       SUNNY     81  27  13 SE8       30.28F
HEBER CITY     SUNNY     82  27  13 NE3       30.31F
WEST JORDAN    SUNNY     81  36  19 NW6       30.29F

$$

UTZ012>022-026-027-292200-

SOUTHERN/CENTRAL UTAH

CITY           SKY/WX    TMP DP  RH WIND       PRES   REMARKS
BLANDING       SUNNY     89  31  12 CALM      30.32F
BRYCE CANYON   SUNNY     81  29  15 VRB6      30.41F
CEDAR CITY     SUNNY     89  21   8 N8        30.26F
DELTA          SUNNY     86  22   9 NW9       30.26F
HANKSVILLE     SUNNY     93  27   9 SE3       30.19F
MILFORD        SUNNY     90  27  10 N16       30.24F
MOAB/CYNLANDS  SUNNY     92  24   8 VRB3      30.17F
PRICE          SUNNY     88  22   9 VRB5      30.28F
ST GEORGE      CLEAR     99  34  10 SW9       30.06F HX  93
KANAB          MOSUNNY   93  28  10 CALM      30.23F

$$

REGIONAL REPORTS     COLORADO/ARIZONA

CITY           SKY/WX    TMP DP  RH WIND       PRES   REMARKS
CRAIG, CO      SUNNY     86  24  10 W9        30.33F
GRAND JUNCTION MOSUNNY   89  26  10 NW9       30.20F
RIFLE          MOSUNNY   89  26  10 N8        30.24F
MONTROSE       SUNNY     89  29  11 N15       30.27F
CORTEZ         CLOUDY    83  33  16 SW5       30.27S
PAGE, AZ       MOSUNNY   94  25   8 N6        30.14F
GRAND CANYON   MOSUNNY   88  25  10 NE14      30.32F
KINGMAN        PTSUNNY   96  52  22 SW9G16    30.10F HX  93
FLAGSTAFF      PTSUNNY   80  47  31 S10       30.35F

$$

REGIONAL REPORTS    NEVADA/IDAHO/WYOMING

CITY           SKY/WX    TMP DP  RH WIND       PRES   REMARKS
LAS VEGAS, NV  MOSUNNY  103  35   9 NE10      29.96F HX  97
ELY            SUNNY     86  23  10 NE7G20    30.31F
ELKO           SUNNY     85  23  10 SW9       30.26F
POCATELLO, ID  SUNNY     81  37  20 N10       30.30F
BURLEY         SUNNY     80  29  15 NW7       30.26F
EVANSTON, WY   SUNNY     77  13   9 SW9       30.42F
ROCK SPRINGS   SUNNY     74  20  13 VRB3      30.39F
KEMMERER       SUNNY     73  18  12 W3        30.43F

$$



USA.gov is the U.S. government's official web portal to all federal, state and local government web resources and services.